Flag for Poland Weather past 2 weeks in Włocławek, Poland

Now
82 °F

Overcast.


Feels Like: 83 °F
Forecast: 67 / 90 °F
Wind: 2 mph from Southeast

Location: Plock

Current Time: Jul 28, 2014 at 9:18:40 PM

Latest Report: Jul 28, 2014 at 8:00 PM


Visibility: 19 mi

Pressure: 29.85 "Hg

Humidity: 54%

Dew point: 63 °F

Location of WłocławekLocation

Historic Weather in Włocławek — Graph

°F

Włocławek temperature yesterday

Maximum temperature yesterday: 86 °F (at 4:00 PM)
Minimum temperature yesterday: 64 °F (at 5:00 AM)
Average temperature yesterday: 76 °F

Past Weeks' High & Low Weather Summary

 TemperatureHumidityPressure
High87 °F (Jul 28, 4:00 PM)98% (Jul 21, 5:00 AM)30.16 "Hg (Jul 21, 5:00 AM)
Low58 °F (Jul 15, 5:00 AM)34% (Jul 16, 4:00 PM)29.82 "Hg (Jul 13, 7:00 PM)
Average71 °F66%30.00 "Hg
* Reported Jul 13 7:00 PM — Jul 28 7:00 PM, Włocławek, Weather by CustomWeather, © 2014

Note: Actual official high and low records may vary slightly from our data, if they occured in-between our weather recording intervals... More about our weather records

Advertising

Włocławek weather history for previous 24 hours

 ConditionsComfort  
Time TempWeatherWind HumidityBarometerVisibility
7:00 PM
Jul 28
84 °FPartly sunny.5 mph49%29.84 "Hg16 mi
6:00 PM86 °FScattered clouds.3 mph45%29.84 "Hg19 mi
5:00 PM87 °FScattered clouds.5 mph46%29.85 "Hg19 mi
4:00 PM87 °FScattered clouds.5 mph44%29.85 "Hg19 mi
3:00 PM87 °FScattered clouds.5 mph45%29.86 "Hg19 mi
2:00 PM86 °FScattered clouds.3 mph47%29.88 "Hg19 mi
1:00 PM85 °FPassing clouds.5 mph51%29.90 "Hg16 mi
12:00 PM83 °FPassing clouds.5 mph52%29.90 "Hg19 mi
11:00 AM81 °FPassing clouds.5 mph55%29.91 "Hg16 mi
10:00 AM80 °FPassing clouds.3 mph60%29.92 "Hg14 mi
9:00 AM76 °FPassing clouds.3 mph71%29.93 "Hg16 mi
8:00 AM72 °FPassing clouds.2 mph78%29.93 "Hg12 mi
7:00 AM70 °FPassing clouds.2 mph85%29.94 "Hg10 mi
6:00 AM66 °FPassing clouds.1 mph91%29.94 "Hg7 mi
5:00 AM65 °FPassing clouds.2 mph90%29.94 "Hg7 mi
4:00 AM67 °FPassing clouds.2 mph88%29.94 "Hg10 mi
3:00 AM67 °FPassing clouds.3 mph87%29.94 "Hg12 mi
2:00 AM68 °FPassing clouds.3 mph83%29.96 "Hg16 mi
1:00 AM69 °FPassing clouds.2 mph79%29.95 "Hg19 mi
12:00 AM70 °FPassing clouds.3 mph75%29.95 "Hg25 mi
11:00 PM
Jul 27
72 °FPassing clouds.2 mph70%29.95 "Hg25 mi
10:00 PM76 °FPassing clouds.5 mph62%29.95 "Hg28 mi
9:00 PM78 °FOvercast.3 mph62%29.94 "Hg16 mi
Weather by CustomWeather, © 2014

See weather overviewHow to use our weather pages